Weather History for Rockford, IL

Change the Weather History Date:

Tuesday, October 29, 2013

  Actual Average Record
Temperature  
Mean Temperature 48 °F 47 °F  
Max Temperature 59 °F 57 °F 81 °F (1922)
Min Temperature 36 °F 37 °F 8 °F (1925)
Degree Days  
Heating Degree Days 17 18  
Month to date heating degree days 397 384  
Since 1 July heating degree days 479 515  
Cooling Degree Days 0 0  
Month to date cooling degree days 16 8  
Year to date cooling degree days 890 819  
Moisture  
Dew Point 36 °F    
Average Humidity 66    
Maximum Humidity 92    
Minimum Humidity 40    
Precipitation  
Precipitation 0.00 in 0.09 in 1.56 in (1996)
Month to date precipitation 1.81 2.50  
Year to date precipitation 35.42 31.51  
Snow  
Snow 0.00 in 0.00 in 2.00 in (1917)
Month to date snowfall T 0.1  
Since 1 July snowfall T 0.1  
Since 1 September snowfall T 0.1  
Snow Depth 0.00 in    
Sea Level Pressure  
Sea Level Pressure 30.28 in    
Wind  
Wind Speed 7 mph (ESE)    
Max Wind Speed 14 mph    
Max Gust Speed 16 mph    
Visibility 10 miles    
Events      
T = Trace of Precipitation, MM = Missing Value Source: NWS Daily Summary

Daily Weather History Graph

Daily Weather History Graph

Search for Another Location

Airport:

Trip Planner

Search our weather history database for the weather conditions in past years. The results will help you decide how hot, cold, wet, or windy it might be!

Date:

Astronomy

Oct. 29, 2013 Rise Set
Actual Time 7:25 AM CDT 5:53 PM CDT
Civil Twilight 6:57 AM CDT 6:22 PM CDT
Nautical Twilight 6:24 AM CDT 6:55 PM CDT
Astronomical Twilight 5:51 AM CDT 7:27 PM CDT
Moon 2:10 AM CDT (10/29) 3:12 PM CDT (10/29)
Length of Visible Light 11h 25m
Length of Day
10h 27m
Waning Crescent, 25% of the Moon is Illuminated
Oct 29
Waning Crescent
Nov 3
New
Nov 9
First Quarter
Nov 17
Full
Nov 25
Last Quarter

Hourly Weather History & Observations

Time (CDT) Temp. Windchill Dew Point Humidity Pressure Visibility Wind Dir Wind Speed Gust Speed Precip Events Conditions
12:54 AM 39.0 °F 33.4 °F 32.0 °F 76% 30.38 in 10.0 mi ENE 8.1 mph - N/A   Overcast
1:54 AM 39.0 °F 33.4 °F 32.0 °F 76% 30.39 in 10.0 mi NE 8.1 mph - N/A   Overcast
2:54 AM 39.0 °F 32.8 °F 32.0 °F 76% 30.39 in 10.0 mi NE 9.2 mph - N/A   Scattered Clouds
3:54 AM 37.0 °F 31.6 °F 32.0 °F 82% 30.39 in 10.0 mi NE 6.9 mph - N/A   Partly Cloudy
4:54 AM 37.0 °F 33.3 °F 33.1 °F 86% 30.38 in 10.0 mi ENE 4.6 mph - N/A   Scattered Clouds
5:54 AM 37.0 °F 31.6 °F 33.1 °F 86% 30.39 in 10.0 mi NE 6.9 mph - N/A   Scattered Clouds
6:54 AM 37.9 °F 34.4 °F 34.0 °F 86% 30.37 in 10.0 mi ENE 4.6 mph - N/A   Mostly Cloudy
7:54 AM 37.9 °F 34.4 °F 35.1 °F 89% 30.37 in 10.0 mi ENE 4.6 mph - N/A   Mostly Cloudy
8:54 AM 39.9 °F 35.8 °F 36.0 °F 86% 30.38 in 10.0 mi East 5.8 mph - N/A   Scattered Clouds
9:54 AM 43.0 °F 38.2 °F 39.0 °F 86% 30.36 in 10.0 mi East 8.1 mph - N/A   Overcast
10:54 AM 46.9 °F - 41.0 °F 80% 30.34 in 8.0 mi ESE 9.2 mph - N/A   Overcast
11:54 AM 48.9 °F - 39.9 °F 71% 30.33 in 10.0 mi SE 6.9 mph - N/A   Overcast
12:54 PM 52.0 °F - 39.0 °F 61% 30.30 in 10.0 mi SE 9.2 mph - N/A   Overcast
1:54 PM 57.9 °F - 37.9 °F 47% 30.25 in 10.0 mi SSE 8.1 mph - N/A   Mostly Cloudy
2:54 PM 59.0 °F - 35.1 °F 41% 30.21 in 10.0 mi SE 11.5 mph - N/A   Scattered Clouds
3:54 PM 57.9 °F - 34.0 °F 41% 30.20 in 10.0 mi SE 10.4 mph - N/A   Scattered Clouds
4:54 PM 57.0 °F - 33.1 °F 40% 30.19 in 10.0 mi SE 10.4 mph - N/A   Mostly Cloudy
5:54 PM 53.1 °F - 35.1 °F 50% 30.19 in 10.0 mi SE 6.9 mph - N/A   Mostly Cloudy
6:54 PM 53.1 °F - 36.0 °F 52% 30.20 in 10.0 mi ESE 5.8 mph - N/A   Overcast
7:54 PM 53.1 °F - 36.0 °F 52% 30.20 in 10.0 mi SE 9.2 mph - N/A   Overcast
8:40 PM 51.8 °F - 37.4 °F 58% 30.17 in 10.0 mi ESE 8.1 mph - N/A   Overcast
8:54 PM 52.0 °F - 37.0 °F 57% 30.18 in 10.0 mi ESE 8.1 mph - N/A   Overcast
9:54 PM 48.9 °F - 39.9 °F 71% 30.19 in 10.0 mi Calm Calm - N/A   Overcast
10:54 PM 48.9 °F - 39.9 °F 71% 30.18 in 10.0 mi ESE 4.6 mph - N/A   Overcast
11:34 PM 48.2 °F - 39.2 °F 71% 30.15 in 10.0 mi ESE 4.6 mph - N/A   Overcast
11:54 PM 48.9 °F - 39.9 °F 71% 30.16 in 10.0 mi ESE 5.8 mph - N/A   Overcast